DW8219 Weather Reports


Display with metric or nautical units.
time (UTC)temp
F
wind
direction
speed
MPH
gust
MPH
rain 1hr
in
rain 24hr
in
rain mn
in
humidity
%
barometer
mb
20260510230404 65 205 0.0 0.0 0.00 0.00 0.00 67 1011.9
20260510225905 65 202 0.0 0.0 0.00 0.00 0.00 68 1011.9
20260510225404 65 202 0.0 1.0 0.00 0.00 0.00 68 1012.0
20260510224404 67 236 4.0 8.0 0.00 0.00 0.00 58 1011.8
20260510223905 67 228 2.0 7.0 0.00 0.00 0.00 58 1011.8
20260510223404 67 225 3.0 8.0 0.00 0.00 0.00 58 1011.7
20260510222904 67 246 2.0 9.0 0.00 0.00 0.00 58 1011.6
20260510222404 67 250 5.0 12.0 0.00 0.00 0.00 58 1011.7
20260510221904 67 253 1.0 12.0 0.00 0.00 0.00 58 1011.7
20260510221405 67 254 5.0 12.0 0.00 0.00 0.00 59 1011.6
20260510220905 67 243 4.0 12.0 0.00 0.00 0.00 58 1011.5
20260510220405 67 224 6.0 13.0 0.00 0.00 0.00 58 1011.5
20260510215905 67 243 3.0 9.0 0.00 0.01 0.00 59 1011.5
20260510215405 67 252 7.0 14.0 0.00 0.06 0.00 59 1011.6
20260510214904 67 256 8.0 14.0 0.00 0.08 0.00 58 1011.5
20260510214406 68 260 7.0 14.0 0.00 0.10 0.00 58 1011.5
20260510213904 67 249 6.0 13.0 0.00 0.12 0.00 58 1011.5
20260510212404 68 253 7.0 14.0 0.00 0.13 0.00 59 1011.4
20260510211904 68 259 9.0 16.0 0.00 0.14 0.00 58 1011.3
20260510211404 68 263 8.0 13.0 0.00 0.14 0.00 57 1011.2
20260510210904 69 266 7.0 14.0 0.00 0.14 0.00 56 1011.1
20260510210405 69 274 6.0 13.0 0.00 0.14 0.00 55 1011.1
20260510205906 69 268 7.0 17.0 0.00 0.14 0.00 54 1011.1
20260510205405 70 244 8.0 15.0 0.00 0.15 0.00 53 1011.0
20260510204904 70 255 9.0 18.0 0.00 0.15 0.00 53 1010.9
20260510203904 70 267 9.0 17.0 0.00 0.15 0.00 52 1010.8
20260510203403 70 257 7.0 14.0 0.00 0.15 0.00 52 1010.9
20260510202903 71 266 7.0 14.0 0.00 0.15 0.00 52 1010.8
20260510202404 71 268 5.0 12.0 0.00 0.15 0.00 51 1010.6
20260510201904 71 263 4.0 18.0 0.00 0.16 0.00 49 1010.6
20260510201403 71 252 9.0 15.0 0.00 0.16 0.00 49 1010.6
20260510200405 72 224 9.0 14.0 0.00 0.16 0.00 51 1010.9
20260510195904 72 259 10.0 15.0 0.00 0.16 0.00 51 1010.7
20260510195404 72 251 7.0 14.0 0.00 0.17 0.00 53 1010.7
20260510194905 72 278 5.0 13.0 0.00 0.17 0.00 52 1010.7
20260510194404 72 252 7.0 14.0 0.00 0.17 0.00 51 1010.8
20260510193904 73 240 7.0 15.0 0.00 0.17 0.00 51 1010.7
20260510193404 74 252 9.0 16.0 0.00 0.17 0.00 50 1010.7
20260510192904 74 227 13.0 20.0 0.00 0.17 0.00 49 1010.7
20260510191905 73 241 9.0 16.0 0.00 0.17 0.00 51 1010.8
20260510191404 73 266 5.0 15.0 0.00 0.17 0.00 53 1010.9
20260510190904 73 250 10.0 18.0 0.00 0.17 0.00 50 1010.8
20260510185904 72 274 7.0 16.0 0.00 0.17 0.00 52 1011.0
20260510185404 72 241 6.0 15.0 0.00 0.18 0.00 61 1011.0
20260510184904 71 203 1.0 3.0 0.00 0.18 0.00 64 1011.1
20260510184404 70 247 1.0 3.0 0.00 0.18 0.00 65 1011.1
20260510183905 70 242 1.0 6.0 0.00 0.18 0.00 64 1011.1
20260510183404 70 268 1.0 3.0 0.00 0.19 0.00 66 1011.2
20260510182905 70 225 2.0 7.0 0.00 0.19 0.00 67 1011.1
20260510182404 70 189 0.0 1.0 0.00 0.19 0.00 64 1011.1
20260510181904 70 213 3.0 6.0 0.00 0.20 0.00 64 1011.1
20260510181404 70 234 1.0 3.0 0.00 0.20 0.00 65 1011.1
20260510180905 70 167 2.0 6.0 0.00 0.20 0.00 66 1011.1
20260510180404 70 212 0.0 7.0 0.00 0.21 0.00 65 1011.1
20260510175904 71 238 1.0 6.0 0.00 0.22 0.00 66 1011.0
20260510175404 70 155 1.0 3.0 0.00 0.23 0.00 68 1011.0
20260510174404 69 87 0.0 5.0 0.00 0.23 0.00 68 1011.0
20260510173904 69 186 0.0 3.0 0.00 0.23 0.00 69 1011.0
20260510173404 69 197 1.0 3.0 0.00 0.23 0.00 71 1011.1
20260510172904 68 179 2.0 6.0 0.00 0.23 0.00 70 1011.1
20260510172404 69 215 2.0 3.0 0.00 0.23 0.00 72 1011.2
20260510171905 69 173 1.0 5.0 0.00 0.23 0.00 71 1011.1
20260510171405 68 109 0.0 2.0 0.00 0.23 0.00 73 1011.3
20260510170904 66 163 1.0 5.0 0.00 0.23 0.00 73 1011.3
20260510165904 67 199 5.0 12.0 0.00 0.23 0.00 73 1011.3
20260510164905 65 170 3.0 8.0 0.00 0.23 0.00 74 1011.4
20260510163905 65 160 1.0 6.0 0.00 0.23 0.00 74 1011.5
20260510163405 67 162 1.0 7.0 0.00 0.23 0.00 74 1011.6
20260510162905 66 263 2.0 7.0 0.00 0.23 0.00 76 1011.6
20260510162405 65 164 1.0 9.0 0.00 0.23 0.00 75 1011.7
20260510161404 66 159 1.0 9.0 0.00 0.23 0.00 76 1011.8
20260510160904 64 229 5.0 10.0 0.00 0.23 0.00 77 1011.6
20260510160405 64 192 3.0 7.0 0.00 0.23 0.00 79 1011.6
20260510155905 64 140 2.0 6.0 0.00 0.23 0.00 79 1011.6
20260510154905 62 133 1.0 3.0 0.00 0.23 0.00 79 1011.8
20260510154405 63 213 2.0 8.0 0.00 0.23 0.00 79 1011.9
20260510153905 62 168 2.0 7.0 0.00 0.23 0.00 80 1011.9
20260510153405 62 151 2.0 7.0 0.00 0.23 0.00 79 1011.9
20260510152905 62 180 3.0 7.0 0.00 0.23 0.00 81 1011.9
20260510152404 62 170 1.0 6.0 0.00 0.23 0.00 79 1011.9
20260510151406 61 147 0.0 3.0 0.00 0.23 0.00 81 1011.9
20260510150905 61 164 1.0 3.0 0.00 0.23 0.00 81 1012.0
20260510150404 60 177 2.0 8.0 0.00 0.23 0.00 83 1012.0
20260510145904 60 252 1.0 3.0 0.00 0.23 0.00 85 1012.0
20260510145405 59 229 1.0 3.0 0.00 0.23 0.00 85 1011.8
20260510144905 60 199 1.0 7.0 0.00 0.23 0.00 84 1011.8
20260510144405 60 199 2.0 5.0 0.00 0.23 0.00 85 1011.8
20260510143903 60 226 1.0 5.0 0.00 0.23 0.00 86 1011.9
20260510141904 58 207 3.0 5.0 0.00 0.23 0.00 89 1011.9
20260510141404 57 193 1.0 6.0 0.00 0.23 0.00 88 1011.8
20260510140903 58 192 2.0 5.0 0.00 0.23 0.00 88 1011.7
20260510135403 57 234 2.0 5.0 0.00 0.23 0.00 91 1011.6
20260510134903 57 168 2.0 5.0 0.00 0.23 0.00 91 1011.5
20260510134404 56 148 1.0 3.0 0.00 0.23 0.00 92 1011.7
20260510133903 56 199 0.0 2.0 0.00 0.23 0.00 92 1011.7
20260510132905 56 227 2.0 3.0 0.00 0.23 0.00 93 1011.6
20260510132404 56 210 3.0 6.0 0.00 0.23 0.00 94 1011.5
20260510131904 55 162 0.0 6.0 0.00 0.23 0.00 94 1011.4
20260510130904 55 144 1.0 5.0 0.00 0.23 0.00 94 1011.4
20260510130404 55 149 1.0 5.0 0.00 0.23 0.00 95 1011.3
20260510125904 55 184 0.0 0.0 0.00 0.23 0.00 95 1011.3
20260510125404 55 184 0.0 0.0 0.00 0.23 0.00 95 1011.3
20260510124905 54 184 0.0 0.0 0.00 0.23 0.00 95 1011.4
20260510124405 54 184 0.0 0.0 0.00 0.23 0.00 95 1011.4
20260510123904 54 184 0.0 0.0 0.00 0.23 0.00 95 1011.3
20260510123405 54 184 0.0 0.0 0.00 0.23 0.00 95 1011.2
20260510122905 54 184 0.0 0.0 0.00 0.23 0.00 95 1011.1
20260510122404 54 184 0.0 0.0 0.00 0.23 0.00 96 1011.0
20260510121904 54 184 0.0 0.0 0.00 0.23 0.00 95 1010.9
20260510121404 54 184 0.0 0.0 0.00 0.23 0.00 96 1010.9
20260510120905 54 185 0.0 0.0 0.00 0.23 0.00 96 1010.9
20260510120404 54 185 0.0 0.0 0.00 0.23 0.00 96 1010.8
20260510115904 54 157 0.0 0.0 0.00 0.23 0.00 96 1010.8
20260510115404 53 157 0.0 0.0 0.00 0.23 0.00 96 1010.7
20260510114904 53 157 0.0 0.0 0.00 0.23 0.00 96 1010.7
20260510113904 53 135 0.0 0.0 0.00 0.23 0.00 96 1010.7
20260510113404 53 135 0.0 0.0 0.00 0.23 0.00 96 1010.7
20260510112904 53 135 0.0 0.0 0.00 0.23 0.00 96 1010.7
20260510112404 53 135 0.0 0.0 0.00 0.23 0.00 96 1010.4
20260510111906 53 134 0.0 0.0 0.00 0.23 0.00 96 1010.3
20260510111404 53 138 0.0 0.0 0.00 0.23 0.00 96 1010.3
20260510110904 52 130 0.0 0.0 0.00 0.23 0.00 96 1010.1
20260510110405 52 128 0.0 0.0 0.00 0.23 0.00 96 1010.1
20260510105905 52 128 0.0 0.0 0.00 0.23 0.00 96 1010.1
20260510104904 52 130 0.0 0.0 0.00 0.23 0.00 96 1010.2
20260510104404 52 130 0.0 0.0 0.00 0.23 0.00 96 1010.2
20260510103904 51 130 1.0 3.0 0.00 0.23 0.00 96 1010.1
20260510103404 51 128 0.0 0.0 0.00 0.23 0.00 96 1010.2
20260510102904 51 130 0.0 3.0 0.00 0.23 0.00 96 1010.1
20260510102404 51 96 0.0 0.0 0.00 0.23 0.00 96 1010.1
20260510101904 51 95 0.0 0.0 0.00 0.23 0.00 96 1010.3
20260510100904 51 95 0.0 0.0 0.00 0.23 0.00 96 1010.2
20260510095905 51 37 0.0 0.0 0.00 0.23 0.00 96 1010.3
20260510095405 51 34 0.0 0.0 0.00 0.23 0.00 96 1010.2
20260510094905 51 32 0.0 0.0 0.00 0.23 0.00 96 1010.3
20260510093904 51 31 0.0 0.0 0.00 0.23 0.00 96 1010.5
20260510093405 51 32 0.0 0.0 0.00 0.23 0.00 96 1010.4
20260510092905 51 344 0.0 0.0 0.00 0.23 0.00 96 1010.5
20260510092406 51 317 0.0 0.0 0.00 0.23 0.00 96 1010.6
20260510091406 52 318 0.0 0.0 0.00 0.23 0.00 96 1010.7
20260510090905 52 318 0.0 0.0 0.00 0.23 0.00 96 1010.7
20260510090405 52 318 0.0 0.0 0.00 0.23 0.00 96 1010.7
20260510085905 52 318 0.0 0.0 0.00 0.23 0.00 96 1010.8
20260510084905 52 317 0.0 0.0 0.00 0.23 0.00 96 1010.6
20260510084405 52 318 0.0 3.0 0.00 0.23 0.00 96 1010.6
20260510082904 52 327 0.0 2.0 0.00 0.23 0.00 96 1010.7
20260510082404 52 325 2.0 5.0 0.00 0.23 0.00 96 1010.4
20260510081904 52 349 0.0 2.0 0.00 0.23 0.00 96 1010.1
20260510081404 52 318 1.0 2.0 0.00 0.23 0.00 96 1010.1
20260510080904 52 129 0.0 0.0 0.00 0.23 0.00 96 1009.8
20260510075903 52 129 0.0 0.0 0.00 0.23 0.00 96 1009.7
20260510075404 52 129 0.0 0.0 0.00 0.23 0.00 96 1009.7
20260510074404 52 129 0.0 0.0 0.00 0.23 0.00 96 1009.7
20260510073904 52 129 0.0 0.0 0.00 0.23 0.00 96 1009.6
20260510072903 52 129 0.0 0.0 0.00 0.23 0.00 96 1009.6
20260510072404 52 129 0.0 0.0 0.00 0.23 0.00 96 1009.6
20260510071904 52 129 0.0 0.0 0.00 0.23 0.00 96 1009.6
20260510071405 52 129 0.0 0.0 0.00 0.23 0.00 96 1009.6
20260510070904 52 136 0.0 0.0 0.00 0.23 0.00 96 1009.8
20260510070404 51 136 0.0 0.0 0.00 0.23 0.00 96 1009.8
20260510065905 51 137 0.0 0.0 0.00 0.23 0.00 96 1009.9
20260510065404 51 137 0.0 0.0 0.00 0.23 0.00 96 1009.9
20260510064904 51 137 0.0 0.0 0.00 0.23 0.00 96 1009.9
20260510064404 51 137 0.0 0.0 0.00 0.23 0.00 96 1009.9
20260510063905 51 137 0.0 0.0 0.00 0.23 0.00 96 1009.8
20260510062905 51 137 0.0 0.0 0.00 0.23 0.00 96 1009.6
20260510062404 51 136 0.0 0.0 0.00 0.23 0.00 96 1009.4
20260510060904 51 136 0.0 0.0 0.00 0.23 0.00 96 1009.4
20260510060404 51 136 0.0 0.0 0.00 0.23 0.00 95 1009.4
20260510055904 50 136 0.0 0.0 0.00 0.23 0.00 96 1009.5
20260510055404 50 136 0.0 0.0 0.00 0.23 0.00 96 1009.4
20260510054904 50 136 0.0 0.0 0.00 0.23 0.00 96 1009.5
20260510054404 50 136 0.0 0.0 0.00 0.23 0.00 96 1009.5
20260510053904 50 136 0.0 0.0 0.00 0.23 0.00 96 1009.5
20260510052904 50 136 0.0 0.0 0.00 0.23 0.00 95 1009.5
20260510052404 49 136 0.0 0.0 0.00 0.23 0.00 96 1009.6
20260510051904 49 137 0.0 0.0 0.00 0.23 0.00 95 1009.6
20260510051405 49 137 0.0 0.0 0.00 0.23 0.00 95 1009.6
20260510050404 49 137 0.0 0.0 0.00 0.23 0.00 95 1009.8
20260510045904 49 137 0.0 0.0 0.00 0.23 0.00 95 1009.7
20260510045405 49 137 0.0 0.0 0.00 0.23 0.00 95 1009.7
20260510044906 49 137 0.0 0.0 0.00 0.23 0.00 95 1009.8
20260510043905 50 137 0.0 0.0 0.00 0.23 0.00 95 1009.8
20260510043404 50 137 0.0 0.0 0.00 0.23 0.00 95 1009.8
20260510042905 50 137 0.0 0.0 0.00 0.23 0.00 95 1009.8
20260510042405 50 137 0.0 0.0 0.00 0.23 0.00 95 1009.8
20260510041905 50 137 0.0 0.0 0.00 0.23 0.00 95 1009.7
20260510041404 50 137 0.0 0.0 0.00 0.23 0.00 95 1009.7
20260510035905 50 137 0.0 0.0 0.00 0.23 0.23 95 1009.5
20260510035405 50 137 0.0 0.0 0.00 0.23 0.23 95 1009.6
20260510034906 50 137 0.0 0.0 0.00 0.23 0.23 95 1009.5
20260510033906 50 137 0.0 0.0 0.00 0.23 0.23 95 1009.4
20260510033405 50 137 0.0 0.0 0.00 0.23 0.23 94 1009.4
20260510032905 50 137 0.0 0.0 0.00 0.23 0.23 95 1009.3
20260510032405 50 137 0.0 0.0 0.00 0.23 0.23 94 1009.4
20260510031904 50 137 0.0 0.0 0.00 0.23 0.23 95 1009.3
20260510031405 50 137 0.0 0.0 0.00 0.23 0.23 95 1009.4
20260510030905 50 137 0.0 0.0 0.00 0.23 0.23 95 1009.4
20260510030405 50 137 0.0 0.0 0.00 0.23 0.23 94 1009.4
20260510025905 50 137 0.0 0.0 0.00 0.23 0.23 94 1009.4
20260510025406 51 137 0.0 0.0 0.00 0.23 0.23 94 1009.3
20260510024905 51 137 0.0 0.0 0.00 0.23 0.23 94 1009.4
20260510024405 51 137 0.0 0.0 0.00 0.23 0.23 94 1009.5
20260510023904 51 137 0.0 0.0 0.00 0.23 0.23 94 1009.5
20260510023403 51 137 0.0 0.0 0.00 0.23 0.23 94 1009.5
20260510022904 51 137 0.0 0.0 0.00 0.23 0.23 94 1009.5
20260510021903 51 137 0.0 0.0 0.00 0.23 0.23 94 1009.5
20260510021404 51 137 0.0 0.0 0.00 0.23 0.23 94 1009.4
20260510020904 51 137 0.0 0.0 0.00 0.23 0.23 94 1009.4
20260510015903 51 137 0.0 0.0 0.00 0.23 0.23 94 1009.4
20260510015405 51 137 0.0 0.0 0.00 0.23 0.23 94 1009.4
20260510014404 51 137 0.0 0.0 0.00 0.23 0.23 94 1009.4
20260510013904 51 137 0.0 0.0 0.00 0.23 0.23 94 1009.5
20260510012903 52 137 0.0 0.0 0.00 0.23 0.23 93 1009.4
20260510012404 52 137 0.0 0.0 0.00 0.23 0.23 94 1009.2
20260510011905 52 137 0.0 0.0 0.00 0.23 0.23 93 1009.1
20260510010904 52 137 0.0 0.0 0.00 0.23 0.23 93 1009.0
20260510005904 52 137 0.0 0.0 0.00 0.23 0.23 93 1008.8
20260510005404 52 137 0.0 0.0 0.00 0.23 0.23 93 1008.8
20260510004904 52 137 0.0 0.0 0.00 0.23 0.23 93 1008.9
20260510004404 52 137 0.0 0.0 0.00 0.23 0.23 93 1008.9
20260510003905 53 137 0.0 0.0 0.00 0.23 0.23 93 1009.0
20260510003404 53 137 0.0 0.0 0.00 0.23 0.23 92 1008.9
20260510002904 53 137 0.0 0.0 0.00 0.23 0.23 92 1008.8
20260510002404 53 137 0.0 0.0 0.00 0.23 0.23 93 1008.7
20260510001904 53 137 0.0 0.0 0.00 0.23 0.23 92 1008.7
20260510000904 54 137 0.0 0.0 0.00 0.23 0.23 92 1008.7
20260510000404 54 137 0.0 0.0 0.00 0.23 0.23 92 1008.7
20260509235404 54 138 0.0 2.0 0.00 0.23 0.23 92 1008.4
20260509234905 54 132 1.0 3.0 0.00 0.23 0.23 92 1008.4
20260509233904 54 137 0.0 0.0 0.00 0.23 0.23 91 1008.4
20260509233404 54 138 0.0 0.0 0.00 0.23 0.23 91 1008.5
20260509232905 54 138 0.0 0.0 0.00 0.23 0.23 91 1008.6
20260509232404 55 138 0.0 0.0 0.00 0.23 0.23 91 1008.6
20260509231404 55 138 0.0 0.0 0.00 0.23 0.23 91 1008.6
20260509230905 55 138 0.0 0.0 0.00 0.23 0.23 91 1008.7